GW1618 Weather Reports


time (UTC)temp
F
wind
direction
speed
knots
gust
knots
rain 1hr
in
rain 24hr
in
rain mn
in
humidity
%
barometer
mb
20260906073209 55 359 0.0 1.7 0.00 0.01 0.00 85 1015.5
20260906072654 55 359 0.0 1.7 0.00 0.01 0.00 85 1015.5
20260906072147 55 359 0.0 0.9 0.00 0.01 0.00 85 1015.5
20260906071917 55 359 0.0 0.0 0.00 0.01 0.00 84 1015.5
20260906071129 55 359 0.0 0.9 0.00 0.01 0.00 84 1015.6
20260906070913 55 359 0.9 1.7 0.00 0.01 0.00 84 1015.6
20260906070132 56 359 0.9 1.7 0.00 0.01 0.00 84 1015.6
20260906065631 56 359 0.0 0.9 0.00 0.01 0.01 84 1015.6
20260906065133 56 359 0.0 0.0 0.00 0.01 0.01 83 1015.6
20260906064634 56 359 0.0 0.9 0.00 0.01 0.01 83 1015.6
20260906064110 56 359 0.9 1.7 0.00 0.01 0.01 83 1015.6
20260906063900 56 359 0.9 2.6 0.00 0.01 0.01 83 1015.6
20260906063103 56 359 0.9 2.6 0.00 0.01 0.01 83 1015.6
20260906062600 56 13 0.9 2.6 0.00 0.01 0.01 84 1015.7
20260906062100 56 22 0.0 0.9 0.00 0.01 0.01 83 1015.7
20260906061600 56 22 0.0 1.7 0.00 0.01 0.01 83 1015.7
20260906061054 56 22 0.9 2.6 0.00 0.01 0.01 83 1015.7
20260906060548 56 22 1.7 4.3 0.00 0.01 0.01 82 1015.7
20260906060032 56 359 2.6 5.2 0.00 0.01 0.01 82 1015.7
20260906055532 56 9 1.7 5.2 0.00 0.01 0.01 80 1015.5
20260906055326 57 249 0.0 0.9 0.00 0.01 0.01 80 1015.5
20260906054544 57 249 0.0 0.9 0.00 0.01 0.01 80 1015.5
20260906054029 57 249 0.9 0.9 0.00 0.01 0.01 80 1015.6
20260906053530 57 249 0.0 0.9 0.00 0.01 0.01 80 1015.6
20260906053028 58 238 0.0 0.9 0.00 0.01 0.01 79 1015.6
20260906052819 58 238 0.0 0.0 0.00 0.01 0.01 78 1015.8
20260906052034 58 238 0.0 0.9 0.00 0.01 0.01 77 1015.8
20260906051529 58 238 0.9 1.7 0.00 0.01 0.01 77 1015.8
20260906051032 58 238 1.7 2.6 0.00 0.01 0.01 77 1015.8
20260906050818 58 236 1.7 2.6 0.00 0.01 0.01 77 1015.8
20260906050009 59 220 0.9 2.6 0.00 0.01 0.01 77 1015.8
20260906045504 58 239 0.0 1.7 0.00 0.01 0.01 77 1015.9
20260906045021 59 221 0.0 0.9 0.00 0.01 0.01 76 1015.9
20260906044015 59 221 0.0 0.9 0.00 0.01 0.01 74 1015.8
20260906043445 60 221 0.9 1.7 0.00 0.01 0.01 75 1015.8
20260906042936 60 221 0.9 1.7 0.00 0.01 0.01 74 1015.8
20260906042438 60 217 0.9 1.7 0.00 0.01 0.01 74 1015.9
20260906041928 60 217 0.9 2.6 0.00 0.01 0.01 73 1015.9
20260906041429 60 218 0.9 2.6 0.00 0.01 0.01 73 1015.9
20260906040942 60 349 0.0 0.9 0.00 0.01 0.01 71 1015.7
20260906035902 60 349 0.9 1.7 0.00 0.01 0.01 70 1015.7
20260906035403 61 344 0.9 1.7 0.00 0.01 0.01 69 1015.7
20260906034907 61 221 0.0 0.9 0.00 0.01 0.01 69 1015.7
20260906034417 61 209 0.9 1.7 0.00 0.01 0.01 68 1015.7
20260906033849 61 209 0.9 1.7 0.00 0.01 0.01 67 1015.6
20260906033343 61 290 0.9 1.7 0.00 0.01 0.01 66 1015.6
20260906032839 62 280 0.0 1.7 0.00 0.01 0.01 67 1015.6
20260906032337 62 58 0.9 1.7 0.00 0.01 0.01 62 1015.5
20260906031836 62 58 0.9 2.6 0.00 0.01 0.01 62 1015.5
20260906031631 63 4 0.9 2.6 0.00 0.01 0.01 62 1015.5
20260906030836 63 288 0.9 1.7 0.00 0.01 0.01 59 1015.5
20260906030338 64 288 0.9 2.6 0.00 0.01 0.01 59 1015.5
20260906025924 64 288 0.9 2.6 0.00 0.01 0.01 59 1015.5
20260906024832 65 73 1.7 2.6 0.00 0.02 0.01 56 1015.5
20260906024335 65 321 2.6 3.5 0.00 0.03 0.01 55 1015.5
20260906023817 65 300 1.7 3.5 0.00 0.03 0.01 54 1015.5
20260906023316 65 296 0.9 2.6 0.00 0.03 0.01 55 1015.5
20260906022824 65 265 0.9 2.6 0.00 0.04 0.01 56 1015.5
20260906022555 65 346 0.0 0.9 0.00 0.04 0.01 56 1015.4
20260906021804 65 346 0.0 1.7 0.00 0.04 0.01 55 1015.4
20260906021306 65 346 0.9 2.6 0.00 0.04 0.01 55 1015.4
20260906020808 65 346 1.7 2.6 0.00 0.04 0.01 55 1015.5
20260906020310 66 359 1.7 2.6 0.00 0.04 0.01 51 1015.5
20260906015806 66 9 0.9 2.6 0.00 0.04 0.01 51 1015.5
20260906015307 67 21 0.9 1.7 0.00 0.04 0.01 51 1015.5
20260906014755 67 4 1.7 2.6 0.00 0.04 0.01 49 1015.5
20260906014558 67 4 1.7 3.5 0.00 0.04 0.01 48 1015.5
20260906013741 67 359 1.7 3.5 0.00 0.04 0.01 50 1015.5
20260906013238 67 355 1.7 3.5 0.00 0.04 0.01 49 1015.5
20260906012732 67 359 2.6 4.3 0.00 0.04 0.01 50 1015.5
20260906012226 68 9 3.5 5.2 0.00 0.04 0.01 52 1015.4
20260906011723 68 20 3.5 5.2 0.00 0.04 0.01 50 1015.4
20260906011217 69 359 2.6 4.3 0.00 0.04 0.01 49 1015.4
20260906010717 69 348 2.6 3.5 0.00 0.04 0.01 43 1015.3
20260906010218 69 331 2.6 4.3 0.00 0.04 0.01 42 1015.3
20260906005712 69 329 2.6 4.3 0.00 0.04 0.01 42 1015.3
20260906005213 69 323 2.6 3.5 0.00 0.04 0.01 43 1015.2
20260906004712 69 331 2.6 3.5 0.00 0.04 0.01 42 1015.2
20260906004209 69 333 3.5 4.3 0.00 0.04 0.01 44 1015.2
20260906003710 69 359 2.6 4.3 0.00 0.04 0.01 45 1015.3
20260906003211 69 334 1.7 3.5 0.00 0.04 0.01 45 1015.3
20260906002712 69 335 1.7 3.5 0.00 0.04 0.01 44 1015.3
20260906002212 68 46 2.6 4.3 0.00 0.04 0.01 48 1015.3
20260906001711 68 4 3.5 5.2 0.00 0.04 0.01 50 1015.3
20260906001205 68 4 3.5 5.2 0.00 0.04 0.01 50 1015.3
20260906000705 68 359 4.3 7.8 0.00 0.04 0.01 51 1015.2
20260906000204 68 9 4.3 7.8 0.00 0.04 0.01 52 1015.2
20260905235955 68 30 5.2 9.6 0.00 0.04 0.01 51 1015.2
20260905235204 68 344 6.1 11.3 0.00 0.04 0.01 55 1015.3
20260905234954 68 359 7.0 11.3 0.00 0.04 0.01 55 1015.3
20260905234209 68 4 7.0 9.6 0.00 0.04 0.01 57 1015.3
20260905233953 68 351 7.0 9.6 0.00 0.04 0.01 55 1015.3
20260905233202 69 9 5.2 8.7 0.00 0.04 0.01 53 1015.3
20260905232702 69 350 4.3 6.1 0.00 0.04 0.01 52 1015.3
20260905232200 69 21 4.3 6.1 0.00 0.04 0.01 50 1015.3
20260905231701 69 351 3.5 6.1 0.00 0.04 0.01 51 1015.3
20260905231203 69 30 3.5 5.2 0.00 0.04 0.01 51 1015.3
20260905230703 69 327 2.6 4.3 0.00 0.04 0.01 50 1015.4
20260905230503 69 334 1.7 3.5 0.00 0.04 0.01 52 1015.4
20260905225700 68 325 2.6 5.2 0.00 0.04 0.01 52 1015.4
20260905225457 68 332 3.5 6.1 0.00 0.04 0.01 54 1015.4
20260905224656 67 9 4.3 7.8 0.00 0.04 0.01 57 1015.4
20260905224147 67 30 5.2 8.7 0.00 0.04 0.01 56 1015.4
20260905223637 67 347 5.2 8.7 0.00 0.04 0.01 57 1015.5
20260905223139 67 333 3.5 7.8 0.00 0.04 0.01 59 1015.5
20260905222638 67 337 2.6 4.3 0.00 0.04 0.01 56 1015.7
20260905222140 67 9 2.6 4.3 0.00 0.04 0.01 56 1015.7
20260905221640 67 328 2.6 3.5 0.00 0.04 0.01 55 1015.7
20260905221446 67 319 2.6 4.3 0.00 0.04 0.01 56 1016.0
20260905220634 67 328 3.5 4.3 0.00 0.04 0.01 55 1016.0
20260905220134 67 341 3.5 4.3 0.00 0.04 0.01 55 1016.0
20260905215635 67 15 3.5 5.2 0.00 0.04 0.01 56 1016.0
20260905215132 67 35 3.5 5.2 0.00 0.04 0.01 60 1016.0
20260905214634 67 13 4.3 5.2 0.00 0.04 0.01 58 1016.0
20260905214120 67 15 4.3 5.2 0.00 0.04 0.01 56 1016.0
20260905213614 67 29 3.5 5.2 0.00 0.04 0.01 55 1016.0
20260905213112 67 9 3.5 4.3 0.00 0.04 0.01 55 1016.0
20260905212613 66 37 3.5 4.3 0.00 0.04 0.01 57 1016.1
20260905212114 66 18 3.5 4.3 0.00 0.04 0.01 57 1016.1
20260905211614 66 355 2.6 4.3 0.00 0.04 0.01 60 1016.1
20260905211423 66 348 2.6 5.2 0.00 0.04 0.01 60 1016.3
20260905210610 66 359 3.5 5.2 0.00 0.04 0.01 62 1016.3
20260905210420 66 9 1.7 5.2 0.00 0.04 0.01 61 1016.3
20260905205610 67 311 1.7 3.5 0.00 0.04 0.01 57 1016.4
20260905205105 66 250 2.6 4.3 0.00 0.04 0.01 56 1016.4
20260905204553 66 177 2.6 4.3 0.00 0.04 0.01 58 1016.4
20260905204041 66 232 1.7 3.5 0.00 0.04 0.01 57 1016.5
20260905203531 66 215 2.6 5.2 0.00 0.04 0.01 57 1016.5
20260905203030 65 213 2.6 5.2 0.00 0.04 0.01 59 1016.5
20260905202532 65 205 3.5 4.3 0.00 0.04 0.01 59 1016.6
20260905202031 65 215 3.5 6.1 0.00 0.04 0.01 59 1016.6
20260905201830 65 216 3.5 6.1 0.00 0.04 0.01 59 1016.6
20260905201031 65 249 3.5 5.2 0.00 0.04 0.01 59 1016.7
20260905200819 65 233 3.5 5.2 0.00 0.04 0.01 59 1016.7
20260905200331 65 237 3.5 5.2 0.00 0.04 0.01 59 1016.7
20260905195534 65 273 3.5 5.2 0.00 0.04 0.01 59 1016.9
20260905195026 65 273 3.5 5.2 0.00 0.04 0.01 60 1016.9
20260905194510 64 204 2.6 5.2 0.00 0.04 0.01 60 1016.9
20260905194012 64 250 2.6 4.3 0.00 0.04 0.01 60 1017.0
20260905193513 64 261 2.6 4.3 0.00 0.04 0.01 59 1017.0
20260905193008 63 254 2.6 4.3 0.00 0.04 0.01 62 1017.0
20260905192805 64 237 1.7 4.3 0.00 0.04 0.01 62 1017.1
20260905192008 63 219 1.7 3.5 0.00 0.04 0.01 62 1017.1
20260905191508 63 213 1.7 3.5 0.00 0.04 0.01 63 1017.1
20260905191009 63 242 0.9 3.5 0.00 0.04 0.01 66 1017.3
20260905190514 62 219 1.7 3.5 0.00 0.04 0.01 65 1017.3
20260905190010 62 176 1.7 3.5 0.00 0.04 0.01 67 1017.3
20260905185453 62 186 0.9 2.6 0.00 0.04 0.01 68 1017.4
20260905184938 61 139 0.9 2.6 0.00 0.04 0.01 71 1017.4
20260905184434 61 209 0.9 3.5 0.00 0.04 0.01 72 1017.4
20260905183936 60 283 1.7 4.3 0.00 0.04 0.01 73 1017.5
20260905183429 60 273 1.7 4.3 0.00 0.04 0.01 74 1017.5
20260905182930 59 214 1.7 3.5 0.00 0.04 0.01 77 1017.5
20260905182430 59 223 1.7 2.6 0.00 0.04 0.01 79 1017.6
20260905181934 58 261 1.7 3.5 0.00 0.04 0.01 80 1017.6
20260905181430 58 232 1.7 3.5 0.00 0.04 0.01 80 1017.6
20260905180933 58 269 1.7 3.5 0.00 0.04 0.01 81 1017.6
20260905180430 57 222 1.7 3.5 0.00 0.04 0.01 83 1017.6
20260905175920 57 211 1.7 3.5 0.00 0.04 0.01 84 1017.6
20260905175420 57 202 1.7 3.5 0.00 0.04 0.01 84 1017.6
20260905174928 57 194 1.7 3.5 0.00 0.04 0.01 84 1017.6
20260905174711 56 158 0.9 2.6 0.00 0.04 0.01 85 1017.6
20260905173919 56 205 1.7 2.6 0.00 0.04 0.01 85 1017.5
20260905173418 56 166 1.7 3.5 0.00 0.04 0.01 85 1017.5
20260905172916 56 225 1.7 3.5 0.00 0.04 0.01 85 1017.5
20260905172719 56 215 1.7 4.3 0.00 0.04 0.01 85 1017.5
20260905171914 56 240 2.6 4.3 0.00 0.04 0.01 86 1017.5
20260905171412 56 218 1.7 3.5 0.00 0.04 0.01 87 1017.5
20260905170913 56 205 1.7 3.5 0.00 0.04 0.01 87 1017.6
20260905170718 56 226 0.9 2.6 0.00 0.04 0.01 88 1017.6
20260905165900 55 223 0.9 1.7 0.00 0.04 0.01 88 1017.6
20260905165355 55 316 0.9 1.7 0.00 0.04 0.01 88 1017.5
20260905164850 55 323 0.0 0.9 0.00 0.04 0.01 89 1017.5
20260905164342 54 335 0.9 2.6 0.00 0.04 0.01 89 1017.5
20260905163835 54 335 0.9 2.6 0.00 0.04 0.01 89 1017.2
20260905163402 54 9 0.9 2.6 0.00 0.04 0.01 89 1017.2
20260905162331 54 343 2.6 4.3 0.00 0.04 0.01 89 1017.1
20260905161834 54 342 2.6 4.3 0.00 0.04 0.01 89 1017.1
20260905161631 54 344 1.7 3.5 0.00 0.04 0.01 89 1017.1
20260905160838 53 359 1.7 2.6 0.00 0.04 0.01 89 1017.1
20260905160329 53 28 1.7 2.6 0.00 0.04 0.01 89 1017.1
20260905155833 53 18 1.7 3.5 0.00 0.04 0.01 89 1017.1
20260905155330 53 342 0.9 3.5 0.00 0.04 0.01 89 1017.1
20260905154822 54 344 0.9 1.7 0.00 0.04 0.01 90 1017.1
20260905154616 54 13 0.9 1.7 0.00 0.04 0.01 90 1017.1
20260905153807 54 67 0.0 0.9 0.00 0.04 0.01 91 1017.1
20260905153601 53 92 0.0 0.9 0.00 0.04 0.01 91 1017.1
20260905152752 53 92 0.0 1.7 0.00 0.04 0.01 91 1017.1
20260905152250 53 92 0.0 1.7 0.00 0.04 0.01 92 1017.0
20260905151741 53 132 0.0 1.7 0.00 0.04 0.01 92 1017.0
20260905151305 52 209 0.9 2.6 0.00 0.04 0.01 92 1017.0
20260905150232 51 240 0.9 2.6 0.00 0.04 0.01 92 1017.0
20260905145729 51 221 0.9 2.6 0.00 0.04 0.01 92 1017.0
20260905145229 51 215 0.9 2.6 0.00 0.04 0.01 92 1017.0
20260905144730 51 215 0.9 2.6 0.00 0.04 0.01 92 1017.0
20260905144208 51 184 0.9 2.6 0.00 0.04 0.01 92 1017.0
20260905143709 51 217 1.7 3.5 0.00 0.04 0.01 92 1017.0
20260905143205 51 220 1.7 3.5 0.00 0.04 0.01 92 1017.0
20260905142701 51 174 1.7 4.3 0.00 0.04 0.01 92 1017.0
20260905142201 51 227 1.7 4.3 0.00 0.04 0.01 92 1017.0
20260905141702 51 205 1.7 3.5 0.00 0.04 0.01 92 1017.0
20260905141201 51 208 1.7 3.5 0.00 0.04 0.01 92 1017.0
20260905141003 51 221 0.9 2.6 0.00 0.04 0.01 92 1016.8
20260905140205 51 194 0.9 1.7 0.00 0.04 0.01 92 1016.8
20260905135708 51 207 0.9 2.6 0.00 0.04 0.01 92 1016.8
20260905135208 51 208 0.9 3.5 0.00 0.04 0.01 92 1016.6
20260905134941 51 226 0.9 3.5 0.00 0.04 0.01 92 1016.6
20260905134203 51 217 0.9 2.6 0.00 0.04 0.01 92 1016.6
20260905133705 51 210 0.9 1.7 0.00 0.04 0.01 92 1016.5
20260905133200 51 209 0.9 2.6 0.00 0.04 0.01 92 1016.5
20260905132701 51 221 0.9 2.6 0.00 0.04 0.01 92 1016.5
20260905132201 51 179 1.7 3.5 0.00 0.04 0.01 92 1016.5
20260905131704 51 169 1.7 3.5 0.00 0.04 0.01 92 1016.5
20260905131202 51 177 0.9 2.6 0.00 0.04 0.01 92 1016.5
20260905130702 51 198 0.9 2.6 0.00 0.04 0.01 92 1016.4
20260905130203 51 204 0.9 2.6 0.00 0.04 0.01 92 1016.4
20260905125700 51 196 0.0 1.7 0.00 0.04 0.01 92 1016.4
20260905125158 51 196 0.9 3.5 0.00 0.04 0.01 92 1016.5
20260905124656 51 196 1.7 3.5 0.00 0.04 0.01 92 1016.5
20260905124440 51 209 1.7 2.6 0.00 0.04 0.01 92 1016.5
20260905123646 51 157 0.9 2.6 0.00 0.04 0.01 92 1016.5
20260905123418 51 174 0.9 2.6 0.00 0.04 0.01 92 1016.5
20260905122642 51 175 0.9 2.6 0.00 0.04 0.01 92 1016.4
20260905122143 51 166 0.9 2.6 0.00 0.04 0.01 92 1016.4
20260905121636 51 155 1.7 2.6 0.00 0.04 0.01 92 1016.4
20260905121136 51 155 1.7 2.6 0.00 0.04 0.01 92 1016.3
20260905120636 51 165 0.9 2.6 0.00 0.04 0.01 92 1016.3
20260905120137 51 133 0.9 1.7 0.00 0.04 0.01 92 1016.3
20260905115632 51 89 0.0 1.7 0.00 0.04 0.01 92 1016.3
20260905115130 52 178 0.9 1.7 0.00 0.04 0.01 92 1016.3
20260905114629 52 178 0.9 2.6 0.00 0.04 0.01 92 1016.3
20260905114131 52 226 0.9 2.6 0.00 0.04 0.01 92 1016.3
20260905113632 52 204 0.9 2.6 0.00 0.04 0.01 92 1016.3
20260905113130 52 184 0.9 2.6 0.00 0.04 0.01 92 1016.3
20260905112632 52 156 0.9 2.6 0.00 0.04 0.01 92 1016.2
20260905112132 52 157 1.7 3.5 0.00 0.04 0.01 92 1016.2
20260905111623 52 178 1.7 2.6 0.01 0.04 0.01 92 1016.2
20260905111117 52 198 1.7 2.6 0.01 0.04 0.01 93 1016.2
20260905110605 52 169 1.7 2.6 0.01 0.04 0.01 92 1016.2
20260905110104 52 167 1.7 2.6 0.01 0.04 0.01 92 1016.2
20260905105602 52 154 0.9 1.7 0.01 0.04 0.01 92 1016.0
20260905105105 52 157 0.9 1.7 0.01 0.04 0.01 93 1016.0
20260905104604 52 170 0.9 1.7 0.01 0.04 0.01 93 1016.0
20260905104103 52 242 0.9 1.7 0.01 0.04 0.01 93 1016.0
20260905103553 52 242 0.9 1.7 0.01 0.04 0.01 93 1016.0
20260905103040 52 256 0.9 0.9 0.01 0.04 0.01 93 1016.0
20260905102539 52 256 0.9 2.6 0.01 0.04 0.01 93 1016.0
20260905102315 52 256 1.7 2.6 0.01 0.04 0.00 93 1016.0
20260905101535 52 246 1.7 2.6 0.00 0.03 0.00 93 1016.0
20260905101031 52 184 1.7 3.5 0.00 0.03 0.00 93 1015.9
20260905100531 52 210 2.6 3.5 0.00 0.03 0.00 93 1015.9
20260905100027 52 223 1.7 3.5 0.00 0.03 0.00 93 1015.9
20260905095824 52 219 0.9 2.6 0.00 0.03 0.00 93 1016.0
20260905095022 53 250 0.9 2.6 0.00 0.03 0.00 93 1016.0
20260905094521 53 238 0.9 3.5 0.00 0.03 0.00 93 1016.0
20260905094024 53 231 0.9 3.5 0.00 0.03 0.00 93 1016.0
20260905093520 53 241 0.9 2.6 0.00 0.03 0.00 93 1016.0
20260905093024 53 217 1.7 4.3 0.00 0.03 0.00 93 1016.0
20260905092514 53 224 2.6 4.3 0.00 0.03 0.00 93 1016.0
20260905092319 53 199 1.7 4.3 0.00 0.03 0.00 93 1016.0
20260905091503 53 232 1.7 2.6 0.00 0.03 0.00 93 1016.0
20260905091002 53 226 0.9 3.5 0.00 0.03 0.00 93 1015.9
20260905090501 53 224 0.9 3.5 0.00 0.03 0.00 93 1015.9
20260905090001 53 250 0.9 1.7 0.00 0.03 0.00 92 1015.9
20260905085501 53 250 0.9 1.7 0.00 0.03 0.00 92 1015.7
20260905085002 53 213 0.9 1.7 0.00 0.03 0.00 92 1015.7
20260905084804 53 257 0.0 1.7 0.00 0.03 0.00 92 1015.7
20260905084249 53 257 0.9 1.7 0.00 0.03 0.00 92 1015.7
20260905083756 53 257 0.9 1.7 0.00 0.03 0.00 92 1015.7
20260905083030 53 257 0.9 2.6 0.00 0.03 0.00 92 1015.7
20260905082003 54 228 1.7 2.6 0.00 0.03 0.00 92 1015.6
20260905081455 54 239 1.7 2.6 0.00 0.03 0.00 92 1015.6
20260905080949 54 223 1.7 2.6 0.00 0.03 0.00 92 1015.5
20260905080453 54 207 1.7 2.6 0.00 0.03 0.00 92 1015.5
20260905075949 54 253 1.7 2.6 0.00 0.03 0.00 92 1015.5
20260905075451 54 269 1.7 2.6 0.00 0.03 0.00 92 1015.5
20260905074942 55 255 0.9 1.7 0.00 0.03 0.00 92 1015.5
20260905074745 55 252 0.9 1.7 0.00 0.03 0.00 92 1015.5
20260905073943 55 259 0.9 2.6 0.00 0.03 0.00 92 1015.5
20260905073440 55 259 0.9 2.6 0.00 0.03 0.00 92 1015.5